Hlavní strana
METAR-TAF:

METAR-TAF

Letiště :

Tadoule Lake, Manitoba, Kanada

zeměpisná šířka: 58-42-22N, zeměpisná délka: 98-30-44W, výška: 281 m

Aktuální stav počasí

Zpráva byla vytvořena před 10 minutami, v 11:00 UTC
Západní vítr 6 kt
Teplota -2°C
Vlhkost vzduchu 86%
Tlak 1008 hPa
Viditelnost: 14.5 km
Zataženo ve výšce 4800 ft

METAR: CYBQ 211100Z AUTO 27006KT 9SM OVC048 M02/M04 A2977 RMK SLP102

Čas: 06:10 (11:10 UTC)


TAF: chybějící

Stav a předpovědi počasí z více než 4 000 letišť (zprávy METAR a TAF).

Červené a žluté tečky na mapě představují dostupné meteorologické stanice.

Když kurzor umístíte na tečku, zobrazí se název stanice.

Pak kliknutím zobrazíte stav a předpověď počasí.

Chcete-li změnit mapu, kliknutím na zelené tlačítko se znaménkem +mapu přiblížíte, kliknutím na zelené tlačítko se znaménkem – mapu oddálíte a kliknutím na zelené šipky přejdete na sousední mapy.


METAR-TAF: